Stations météo

Publicité
Cluanie Inn No 3, Grande-Bretagne (99117): Température de l'air & dewpoint: 16.11.2017 21:00:00 - 22.11.2017 21:00:00 (GMT)Cluanie Inn No 3, Grande-Bretagne (99117): Quantités de précipitations: 16.11.2017 21:00:00 - 22.11.2017 21:00:00 (GMT)
Date & Time tt [°C] td [°C] rr [mm]
22.11.2017 21:00:00 1,8 0,1 0,0
22.11.2017 20:00:00 2,3 0,0 0,0
22.11.2017 19:00:00 2,3 0,2 0,0
22.11.2017 18:00:00 2,5 0,6 0,0
22.11.2017 17:00:00 2,5 0,8 0,0
22.11.2017 16:00:00 - - 0,0
22.11.2017 15:00:00 3,7 -0,5 0,0
22.11.2017 14:00:00 3,6 -0,6 0,0
22.11.2017 13:00:00 3,5 0,7 0,0
22.11.2017 12:00:00 3,9 0,5 0,0
22.11.2017 11:00:00 3,6 0,0 0,0
22.11.2017 10:00:00 3,6 0,4 0,0
22.11.2017 09:00:00 3,5 1,0 0,0
22.11.2017 08:00:00 3,5 1,0 0,0
22.11.2017 07:00:00 4,2 0,7 0,0
22.11.2017 06:00:00 4,4 1,5 0,0
22.11.2017 05:00:00 4,9 3,2 0,2
22.11.2017 04:00:00 5,2 3,4 0,2
22.11.2017 03:00:00 5,5 3,7 0,0
22.11.2017 02:00:00 5,8 4,5 0,4
22.11.2017 01:00:00 6,0 4,6 0,0
22.11.2017 00:00:00 6,1 4,9 0,0
21.11.2017 23:00:00 6,3 5,2 0,0
21.11.2017 22:00:00 6,8 4,7 0,0
21.11.2017 21:00:00 5,9 5,3 0,0
21.11.2017 20:00:00 6,1 5,6 0,4
21.11.2017 19:00:00 5,9 5,7 4,0
21.11.2017 18:00:00 6,1 5,9 4,0
21.11.2017 17:00:00 5,9 5,8 3,2
21.11.2017 16:00:00 5,2 5,1 3,2
21.11.2017 15:00:00 5,1 5,1 3,0
21.11.2017 14:00:00 5,1 5,0 2,6
21.11.2017 13:00:00 5,0 5,0 1,4
21.11.2017 12:00:00 5,1 5,0 1,2
21.11.2017 11:00:00 5,1 5,0 -
21.11.2017 10:00:00 5,0 5,0 0,6
21.11.2017 09:00:00 4,9 4,9 0,2
21.11.2017 08:00:00 4,8 4,7 0,0
21.11.2017 07:00:00 4,7 4,7 0,2
21.11.2017 06:00:00 4,7 4,7 0,0
21.11.2017 05:00:00 4,7 4,6 0,2
21.11.2017 04:00:00 4,7 4,6 0,4
21.11.2017 03:00:00 4,7 4,6 0,2
21.11.2017 02:00:00 4,6 4,5 0,2
21.11.2017 01:00:00 4,7 4,5 0,2
21.11.2017 00:00:00 4,7 4,5 0,2
20.11.2017 23:00:00 4,5 4,3 0,2
20.11.2017 22:00:00 - - 0,0
20.11.2017 21:00:00 4,4 4,1 0,4
20.11.2017 20:00:00 4,2 4,0 0,2
20.11.2017 19:00:00 4,2 3,9 0,4
20.11.2017 18:00:00 4,2 3,7 0,0
20.11.2017 17:00:00 4,3 3,8 0,0
20.11.2017 16:00:00 4,5 3,2 0,0
20.11.2017 15:00:00 4,4 3,3 0,0
20.11.2017 14:00:00 4,3 3,4 0,2
20.11.2017 13:00:00 4,2 4,0 0,6
20.11.2017 12:00:00 4,0 3,7 1,0
20.11.2017 11:00:00 3,9 3,2 -
20.11.2017 10:00:00 3,7 3,0 1,2
20.11.2017 09:00:00 3,5 2,9 2,2
20.11.2017 08:00:00 3,2 2,9 1,8
20.11.2017 07:00:00 3,1 2,7 1,0
20.11.2017 06:00:00 3,0 2,5 1,0
20.11.2017 05:00:00 3,0 2,5 2,8
20.11.2017 04:00:00 2,8 2,4 1,2
20.11.2017 03:00:00 - - 0,8
20.11.2017 02:00:00 2,1 1,7 0,6
20.11.2017 01:00:00 1,9 1,3 0,2
20.11.2017 00:00:00 1,8 1,2 -
19.11.2017 23:00:00 1,8 1,0 1,2
19.11.2017 22:00:00 2,1 1,2 0,8
19.11.2017 21:00:00 2,5 1,5 0,6
19.11.2017 20:00:00 2,9 1,3 0,0
19.11.2017 19:00:00 3,3 1,6 0,0
19.11.2017 18:00:00 3,6 0,8 0,0
19.11.2017 17:00:00 3,4 1,3 0,0
19.11.2017 16:00:00 3,6 1,1 0,0
19.11.2017 15:00:00 4,0 1,7 0,0
19.11.2017 14:00:00 4,3 1,8 0,0
19.11.2017 13:00:00 4,2 1,6 0,0
19.11.2017 12:00:00 - - 0,0
19.11.2017 11:00:00 2,0 1,6 0,0
19.11.2017 10:00:00 1,6 1,1 0,0
19.11.2017 09:00:00 1,1 0,4 0,0
19.11.2017 08:00:00 1,8 0,9 0,0
19.11.2017 07:00:00 1,9 1,0 0,0
19.11.2017 06:00:00 3,0 1,9 0,0
19.11.2017 05:00:00 2,7 1,7 0,0
19.11.2017 04:00:00 2,7 2,0 0,2
19.11.2017 03:00:00 2,8 1,9 0,2
19.11.2017 02:00:00 3,1 1,5 1,2
19.11.2017 01:00:00 3,4 2,1 0,4
19.11.2017 00:00:00 4,1 1,5 0,4
18.11.2017 23:00:00 3,6 1,6 0,2
18.11.2017 22:00:00 4,1 1,4 0,4
18.11.2017 21:00:00 3,9 1,2 0,0
18.11.2017 20:00:00 3,6 1,1 0,4
18.11.2017 19:00:00 4,7 -0,7 0,0
18.11.2017 18:00:00 4,9 -2,1 0,0
18.11.2017 17:00:00 4,0 -2,0 0,0
18.11.2017 16:00:00 4,6 -2,5 0,0
18.11.2017 15:00:00 4,7 -1,4 0,0
18.11.2017 14:00:00 5,0 -3,8 0,0
18.11.2017 13:00:00 5,1 -1,4 0,0
18.11.2017 12:00:00 4,7 -0,7 0,0
18.11.2017 11:00:00 4,9 -1,8 0,0
18.11.2017 10:00:00 4,1 -1,9 0,0
18.11.2017 09:00:00 3,7 -2,1 0,0
18.11.2017 08:00:00 4,0 -1,7 0,0
18.11.2017 07:00:00 3,8 -0,6 0,0
18.11.2017 06:00:00 3,3 0,3 0,2
18.11.2017 05:00:00 4,0 0,1 0,0
18.11.2017 04:00:00 4,0 -0,4 1,4
18.11.2017 03:00:00 4,2 0,8 1,0
18.11.2017 02:00:00 4,6 1,2 0,6
18.11.2017 01:00:00 4,0 1,5 1,0
18.11.2017 00:00:00 5,7 1,2 0,2
17.11.2017 23:00:00 5,9 1,7 0,8
17.11.2017 22:00:00 5,2 2,8 1,2
17.11.2017 21:00:00 5,7 3,2 2,2
17.11.2017 20:00:00 5,8 3,1 0,2
17.11.2017 19:00:00 6,4 2,7 0,8
17.11.2017 18:00:00 6,5 2,7 0,2
17.11.2017 17:00:00 6,3 2,8 0,2
17.11.2017 16:00:00 6,2 3,1 0,8
17.11.2017 15:00:00 6,4 3,6 1,2
17.11.2017 14:00:00 6,1 3,7 1,6
17.11.2017 13:00:00 5,6 3,6 1,2
17.11.2017 12:00:00 6,4 3,7 1,6
17.11.2017 11:00:00 6,4 2,8 0,8
17.11.2017 10:00:00 5,9 3,4 0,8
17.11.2017 09:00:00 5,7 3,2 1,2
17.11.2017 08:00:00 5,5 3,0 0,8
17.11.2017 07:00:00 6,2 2,6 2,8
17.11.2017 06:00:00 5,7 2,9 0,8
17.11.2017 05:00:00 6,0 2,7 1,0
17.11.2017 04:00:00 6,0 2,7 1,6
17.11.2017 03:00:00 6,0 2,4 1,2
17.11.2017 02:00:00 6,0 1,5 -
17.11.2017 01:00:00 4,8 2,2 0,6
17.11.2017 00:00:00 5,9 0,3 -
16.11.2017 23:00:00 5,0 0,9 0,0
16.11.2017 22:00:00 4,9 0,1 0,0
16.11.2017 21:00:00 4,0 1,2 0,2

tt = Température de l'air
td = dewpoint
rr = Quantités de précipitations

stations d'obs. à proximité